{"data":{"norad_id":52479,"epoch":"2026-05-25T03:42:56.049696Z","epoch_age_seconds":71959,"freshness":"FRESH","line1":"1 52479U 22049AE  26145.15481539 -.00000544  00000+0 -16089-4 0  9990","line2":"2 52479  53.2134  65.8534 0001473  77.7555 282.3602 15.08831391225178","mean_motion":15.08831391,"eccentricity":0.0001473,"inclination_deg":53.2134,"raan_deg":65.8534,"arg_perigee_deg":77.7555,"mean_anomaly_deg":282.3602,"bstar":-1.6089e-5,"rev_number":22517,"period_min":95.438099219663,"perigee_km":538.75069570073,"apogee_km":540.78871101554,"semimajor_km":6917.9067033581,"source":"CELESTRAK","updated_at":"2026-05-25T13:38:17.155190Z"}}